Language: 


Des rapports , des résumés tant et plus, au choix de chacun....


Données statistiques de la station
Quotidien Rapport Mai 9, 2017 Unités:  Métrique    Anglais   les deux
« Précédent Jour
Suivant Jour »
Quotidien Hebdomadaire Mensuel Annuel Actuel
  Haut: Bas: Moyen:
Température: 19.0 °C 2.7 °C 11 °C
Pt de rosée: 8.0 °C 0.0 °C 3.9 °C
Humidité: 98 % 36 % 65 %
Vitesse du vent: 21.9 km/h 0.0 km/h 7.5 km/h
Rafales: 21.9 km/h - -
Vent:- - SE
Pression: 1022.9 hPa 985.0 hPa -
Précipitation: 0.0 mm    
Historical Graphs
 
 
Données statistiques pour Mai 9, 2017
Heure Température Point de rosée Pression Vent Vitesse du vent Refales Humidité Pluie (taux horaire)
00:00 7.3 °C 6.0 °C 1022.9 hPa NNW 9.0 km/h 14.0 km/h 89 % 0.0 mm
00:05 7.2 °C 6.0 °C 1022.9 hPa North 6.1 km/h 14.0 km/h 89 % 0.0 mm
00:10 7.1 °C 6.0 °C 1022.9 hPa North 4.7 km/h 11.1 km/h 89 % 0.0 mm
00:15 7.1 °C 6.0 °C 1022.9 hPa North 9.3 km/h 10.5 km/h 89 % 0.0 mm
00:20 7.0 °C 6.0 °C 1022.9 hPa North 6.1 km/h 10.5 km/h 89 % 0.0 mm
00:25 6.9 °C 6.0 °C 1022.9 hPa North 3.2 km/h 10.5 km/h 90 % 0.0 mm
00:30 6.9 °C 6.0 °C 1022.9 hPa North 3.2 km/h 10.5 km/h 90 % 0.0 mm
00:31 6.8 °C 5.0 °C 1022.9 hPa NNW 5.0 km/h 10.5 km/h 90 % 0.0 mm
00:36 6.8 °C 5.0 °C 1022.9 hPa North 6.1 km/h 10.5 km/h 90 % 0.0 mm
00:41 6.8 °C 5.0 °C 1022.9 hPa NW 6.1 km/h 13.7 km/h 90 % 0.0 mm
00:46 6.7 °C 5.0 °C 1022.9 hPa NNE 5.8 km/h 13.7 km/h 90 % 0.0 mm
00:51 6.7 °C 6.0 °C 1021.9 hPa NNE 7.6 km/h 10.5 km/h 91 % 0.0 mm
00:56 6.7 °C 6.0 °C 1021.9 hPa NW 6.1 km/h 10.1 km/h 91 % 0.0 mm
01:01 6.6 °C 6.0 °C 1021.9 hPa Calm   9.0 km/h 91 % 0.0 mm
01:06 6.5 °C 6.0 °C 1022.9 hPa North 7.9 km/h 9.7 km/h 91 % 0.0 mm
01:11 6.5 °C 6.0 °C 1022.9 hPa North 5.5 km/h 11.6 km/h 92 % 0.0 mm
01:16 6.5 °C 6.0 °C 1022.9 hPa North 5.5 km/h 11.6 km/h 92 % 0.0 mm
01:21 6.4 °C 5.0 °C 1021.9 hPa North 7.2 km/h 9.7 km/h 92 % 0.0 mm
01:26 6.4 °C 5.0 °C 1021.9 hPa NNE 7.9 km/h 9.3 km/h 92 % 0.0 mm
01:31 6.3 °C 5.0 °C 1021.9 hPa North 6.4 km/h 10.5 km/h 92 % 0.0 mm
01:36 6.3 °C 6.0 °C 1022.9 hPa North 6.4 km/h 11.6 km/h 93 % 0.0 mm
01:41 6.3 °C 6.0 °C 1022.9 hPa North 9.7 km/h 11.6 km/h 93 % 0.0 mm
01:47 6.3 °C 6.0 °C 1022.9 hPa North 6.1 km/h 11.9 km/h 93 % 0.0 mm
01:52 6.3 °C 6.0 °C 1021.9 hPa North 7.9 km/h 11.9 km/h 93 % 0.0 mm
01:57 6.3 °C 6.0 °C 1021.9 hPa North 6.4 km/h 12.6 km/h 93 % 0.0 mm
02:02 6.2 °C 6.0 °C 1021.9 hPa NNE 4.7 km/h 12.6 km/h 93 % 0.0 mm
02:07 6.1 °C 5.0 °C 1021.9 hPa NNE 7.2 km/h 11.6 km/h 93 % 0.0 mm
02:12 5.9 °C 5.0 °C 1021.9 hPa NNE 6.1 km/h 9.7 km/h 93 % 0.0 mm
02:17 5.8 °C 5.0 °C 1021.9 hPa ENE 4.7 km/h 9.0 km/h 93 % 0.0 mm
02:22 5.7 °C 5.0 °C 1022.9 hPa NE 1.4 km/h 9.0 km/h 93 % 0.0 mm
02:27 5.6 °C 5.0 °C 1022.9 hPa NE 5.5 km/h 8.7 km/h 93 % 0.0 mm
02:32 5.3 °C 5.0 °C 1022.9 hPa NNE 2.6 km/h 6.9 km/h 93 % 0.0 mm
02:37 5.3 °C 5.0 °C 1022.9 hPa NNE 4.7 km/h 6.9 km/h 93 % 0.0 mm
02:42 5.2 °C 4.0 °C 1022.9 hPa Calm   6.4 km/h 93 % 0.0 mm
02:47 5.2 °C 4.0 °C 1022.9 hPa North 5.0 km/h 6.1 km/h 93 % 0.0 mm
02:52 5.0 °C 4.0 °C 1022.9 hPa Calm   6.1 km/h 93 % 0.0 mm
02:58 4.9 °C 4.0 °C 1022.9 hPa NE 5.0 km/h 6.4 km/h 94 % 0.0 mm
03:02 4.7 °C 4.0 °C 1022.9 hPa NE 5.8 km/h 6.4 km/h 94 % 0.0 mm
03:08 4.7 °C 4.0 °C 1022.9 hPa NE 6.1 km/h 6.9 km/h 94 % 0.0 mm
03:12 4.7 °C 4.0 °C 1022.9 hPa NNE 5.0 km/h 6.9 km/h 95 % 0.0 mm
03:18 4.6 °C 4.0 °C 1022.9 hPa NNE 4.3 km/h 6.9 km/h 95 % 0.0 mm
03:23 4.6 °C 4.0 °C 1022.9 hPa NNE 4.7 km/h 6.9 km/h 94 % 0.0 mm
03:28 4.6 °C 4.0 °C 1022.9 hPa North 5.5 km/h 6.9 km/h 95 % 0.0 mm
03:33 4.6 °C 4.0 °C 1022.9 hPa North 1.8 km/h 9.0 km/h 95 % 0.0 mm
03:36 4.6 °C 4.0 °C 1022.9 hPa NNE 6.4 km/h 9.0 km/h 95 % 0.0 mm
03:41 4.5 °C 4.0 °C 1022.9 hPa Calm   9.0 km/h 95 % 0.0 mm
03:46 4.4 °C 4.0 °C 1022.9 hPa North 4.0 km/h 6.9 km/h 95 % 0.0 mm
03:51 4.6 °C 4.0 °C 1022.9 hPa NNE 7.9 km/h 9.3 km/h 96 % 0.0 mm
03:56 4.7 °C 4.0 °C 1022.9 hPa North 5.8 km/h 9.3 km/h 96 % 0.0 mm
04:01 4.7 °C 4.0 °C 1022.9 hPa North 4.7 km/h 9.3 km/h 96 % 0.0 mm
04:06 4.7 °C 4.0 °C 1021.9 hPa North 4.7 km/h 9.3 km/h 96 % 0.0 mm
04:11 4.8 °C 4.0 °C 1021.9 hPa North 6.1 km/h 9.3 km/h 96 % 0.0 mm
04:16 4.7 °C 4.0 °C 1021.9 hPa NNE 4.3 km/h 9.3 km/h 96 % 0.0 mm
04:21 4.6 °C 4.0 °C 1021.9 hPa NNE 2.1 km/h 6.4 km/h 96 % 0.0 mm
04:26 4.6 °C 4.0 °C 1021.9 hPa NE 5.8 km/h 6.9 km/h 96 % 0.0 mm
04:31 4.5 °C 4.0 °C 1021.9 hPa North 4.0 km/h 6.9 km/h 96 % 0.0 mm
04:36 4.4 °C 4.0 °C 1021.9 hPa Calm   8.7 km/h 96 % 0.0 mm
04:41 4.4 °C 4.0 °C 1021.9 hPa Calm   8.7 km/h 96 % 0.0 mm
04:46 4.3 °C 4.0 °C 1021.9 hPa NNE 4.0 km/h 6.1 km/h 96 % 0.0 mm
04:51 4.2 °C 4.0 °C 1021.9 hPa NNE 4.7 km/h 6.9 km/h 96 % 0.0 mm
04:56 4.2 °C 4.0 °C 1021.9 hPa NNW 5.0 km/h 6.9 km/h 96 % 0.0 mm
05:01 4.1 °C 4.0 °C 1021.9 hPa Calm   6.4 km/h 96 % 0.0 mm
05:06 4.1 °C 4.0 °C 1021.9 hPa Calm   6.4 km/h 96 % 0.0 mm
05:11 4.0 °C 4.0 °C 1021.9 hPa NNE 4.0 km/h 5.5 km/h 96 % 0.0 mm
05:16 3.9 °C 4.0 °C 1021.9 hPa Calm   5.5 km/h 96 % 0.0 mm
05:21 3.7 °C 3.0 °C 1021.9 hPa Calm   4.3 km/h 96 % 0.0 mm
05:26 3.7 °C 3.0 °C 1021.9 hPa Calm   3.2 km/h 95 % 0.0 mm
05:31 3.5 °C 3.0 °C 1021.9 hPa ENE 3.2 km/h 3.2 km/h 95 % 0.0 mm
05:36 3.3 °C 3.0 °C 1021.9 hPa Calm   3.2 km/h 95 % 0.0 mm
05:41 3.2 °C 3.0 °C 1021.9 hPa Calm     95 % 0.0 mm
05:47 3.0 °C 3.0 °C 1021.9 hPa Calm     95 % 0.0 mm
05:52 2.9 °C 3.0 °C 1021.9 hPa Calm     95 % 0.0 mm
05:57 2.8 °C 3.0 °C 1021.9 hPa Calm     95 % 0.0 mm
06:02 2.9 °C 3.0 °C 1021.9 hPa Calm   3.2 km/h 96 % 0.0 mm
06:07 2.8 °C 3.0 °C 1021.9 hPa Calm   3.2 km/h 96 % 0.0 mm
06:12 2.7 °C 3.0 °C 1021.9 hPa North 1.4 km/h 2.6 km/h 96 % 0.0 mm
06:17 2.7 °C 3.0 °C 1021.9 hPa Calm   2.6 km/h 96 % 0.0 mm
06:22 2.9 °C 3.0 °C 1021.9 hPa Calm   2.6 km/h 97 % 0.0 mm
06:27 3.0 °C 3.0 °C 1021.9 hPa Calm   5.5 km/h 97 % 0.0 mm
06:32 3.1 °C 3.0 °C 1021.9 hPa NNE 3.2 km/h 5.5 km/h 97 % 0.0 mm
06:37 3.2 °C 3.0 °C 1021.9 hPa Calm   4.3 km/h 98 % 0.0 mm
06:42 3.3 °C 3.0 °C 1021.9 hPa Calm   3.2 km/h 98 % 0.0 mm
06:47 3.6 °C 4.0 °C 1021.9 hPa North 4.0 km/h 5.8 km/h 98 % 0.0 mm
06:52 3.7 °C 4.0 °C 1019.9 hPa Calm   5.8 km/h 98 % 0.0 mm
06:57 3.9 °C 4.0 °C 1019.9 hPa North 3.2 km/h 6.1 km/h 98 % 0.0 mm
07:02 4.3 °C 4.0 °C 1019.9 hPa Calm   6.4 km/h 98 % 0.0 mm
07:07 4.6 °C 5.0 °C 1018.8 hPa North 1.4 km/h 6.4 km/h 98 % 0.0 mm
07:13 4.9 °C 5.0 °C 1018.8 hPa Calm   5.8 km/h 98 % 0.0 mm
07:17 5.2 °C 5.0 °C 1018.8 hPa North 4.3 km/h 6.4 km/h 98 % 0.0 mm
07:23 5.5 °C 6.0 °C 1018.8 hPa NE 4.3 km/h 6.9 km/h 98 % 0.0 mm
07:28 5.8 °C 6.0 °C 1018.8 hPa NNE 8.7 km/h 9.0 km/h 98 % 0.0 mm
07:33 6.1 °C 6.0 °C 1018.8 hPa NNE 2.6 km/h 10.1 km/h 97 % 0.0 mm
07:38 6.5 °C 6.0 °C 1018.8 hPa NNE 2.6 km/h 10.1 km/h 97 % 0.0 mm
07:43 6.8 °C 6.0 °C 1018.8 hPa NNE 4.3 km/h 10.5 km/h 96 % 0.0 mm
07:45 7.0 °C 6.0 °C 1018.8 hPa North 10.5 km/h 10.5 km/h 95 % 0.0 mm
07:50 7.3 °C 6.0 °C 1018.8 hPa NE 8.7 km/h 11.9 km/h 94 % 0.0 mm
07:55 7.6 °C 7.0 °C 1018.8 hPa ENE 5.5 km/h 11.9 km/h 94 % 0.0 mm
08:01 8.0 °C 7.0 °C 1018.8 hPa NNE 6.9 km/h 9.3 km/h 93 % 0.0 mm
08:06 8.4 °C 8.0 °C 1020.9 hPa NE 5.5 km/h 8.7 km/h 93 % 0.0 mm
08:11 8.7 °C 8.0 °C 1020.9 hPa North 6.1 km/h 8.7 km/h 92 % 0.0 mm
08:16 9.1 °C 8.0 °C 1020.9 hPa ENE 4.7 km/h 9.3 km/h 91 % 0.0 mm
08:21 9.4 °C 8.0 °C 1020.9 hPa ENE 4.3 km/h 9.3 km/h 90 % 0.0 mm
08:26 9.8 °C 8.0 °C 1020.9 hPa NE 5.8 km/h 9.7 km/h 88 % 0.0 mm
08:31 10.1 °C 8.0 °C 1020.9 hPa NE 5.5 km/h 9.7 km/h 87 % 0.0 mm
08:36 10.2 °C 8.0 °C 1020.9 hPa NE 9.3 km/h 9.7 km/h 86 % 0.0 mm
08:41 10.4 °C 8.0 °C 1020.9 hPa ENE 7.6 km/h 10.5 km/h 84 % 0.0 mm
08:46 10.5 °C 8.0 °C 1020.9 hPa ENE 5.5 km/h 10.5 km/h 82 % 0.0 mm
08:51 10.8 °C 8.0 °C 1020.9 hPa East 1.8 km/h 10.5 km/h 82 % 0.0 mm
08:56 11.1 °C 8.0 °C 1020.9 hPa NNE 6.1 km/h 9.0 km/h 80 % 0.0 mm
09:01 11.3 °C 7.0 °C 1020.9 hPa NE 6.1 km/h 12.6 km/h 76 % 0.0 mm
09:06 11.5 °C 8.0 °C 1020.9 hPa ENE 6.4 km/h 12.6 km/h 75 % 0.0 mm
09:11 11.4 °C 7.0 °C 1020.9 hPa NE 10.1 km/h 12.6 km/h 73 % 0.0 mm
09:16 11.6 °C 7.0 °C 1020.9 hPa NNE 8.7 km/h 12.6 km/h 74 % 0.0 mm
09:21 11.6 °C 6.0 °C 1019.9 hPa NNE 10.1 km/h 14.3 km/h 68 % 0.0 mm
09:26 11.6 °C 6.0 °C 1019.9 hPa NE 10.1 km/h 14.3 km/h 68 % 0.0 mm
09:31 11.7 °C 6.0 °C 1019.9 hPa North 7.9 km/h 14.0 km/h 66 % 0.0 mm
09:36 11.8 °C 6.0 °C 1020.9 hPa NNE 6.9 km/h 13.7 km/h 67 % 0.0 mm
09:42 12.0 °C 6.0 °C 1020.9 hPa NE 10.8 km/h 13.0 km/h 65 % 0.0 mm
09:47 12.2 °C 6.0 °C 1020.9 hPa North 12.6 km/h 14.0 km/h 63 % 0.0 mm
09:52 12.6 °C 6.0 °C 1020.9 hPa East 5.5 km/h 14.0 km/h 62 % 0.0 mm
09:57 12.8 °C 6.0 °C 1020.9 hPa East 4.0 km/h 13.0 km/h 60 % 0.0 mm
10:02 13.2 °C 6.0 °C 1020.9 hPa NE 3.2 km/h 11.6 km/h 60 % 0.0 mm
10:07 13.2 °C 5.0 °C 1020.9 hPa ENE 7.9 km/h 13.0 km/h 57 % 0.0 mm
10:12 13.2 °C 5.0 °C 1020.9 hPa North 9.0 km/h 13.0 km/h 56 % 0.0 mm
10:17 13.1 °C 5.0 °C 1020.9 hPa ENE 7.9 km/h 13.0 km/h 56 % 0.0 mm
10:22 13.6 °C 6.0 °C 1020.9 hPa North 7.9 km/h 13.0 km/h 57 % 0.0 mm
10:27 13.8 °C 5.0 °C 1020.9 hPa East 7.9 km/h 9.0 km/h 56 % 0.0 mm
10:32 14.0 °C 5.0 °C 1020.9 hPa ENE 2.1 km/h 9.0 km/h 54 % 0.0 mm
10:37 14.2 °C 6.0 °C 1018.2 hPa NNE 9.3 km/h 11.9 km/h 54 % 0.0 mm
10:42 14.0 °C 5.0 °C 1018.2 hPa NE 9.7 km/h 12.6 km/h 53 % 0.0 mm
10:47 14.0 °C 4.0 °C 1018.2 hPa East 6.9 km/h 13.7 km/h 51 % 0.0 mm
10:52 14.0 °C 4.0 °C 1015.1 hPa North 10.1 km/h 13.7 km/h 49 % 0.0 mm
10:57 14.4 °C 4.0 °C 1015.1 hPa NNE 3.5 km/h 12.6 km/h 49 % 0.0 mm
11:02 14.4 °C 4.0 °C 1015.1 hPa North 10.1 km/h 12.6 km/h 48 % 0.0 mm
11:07 14.7 °C 4.0 °C 1018.8 hPa ENE 10.5 km/h 12.6 km/h 49 % 0.0 mm
11:12 14.7 °C 4.0 °C 1018.8 hPa North 5.0 km/h 11.9 km/h 49 % 0.0 mm
11:17 14.7 °C 4.0 °C 1018.8 hPa NE 12.2 km/h 15.8 km/h 48 % 0.0 mm
11:22 14.9 °C 5.0 °C 1018.8 hPa ENE 6.4 km/h 15.8 km/h 49 % 0.0 mm
11:27 14.7 °C 4.0 °C 1018.8 hPa NE 9.3 km/h 14.0 km/h 47 % 0.0 mm
11:32 14.8 °C 4.0 °C 1018.8 hPa NNE 11.9 km/h 14.0 km/h 48 % 0.0 mm
11:37 15.1 °C 4.0 °C 1015.1 hPa ENE 6.4 km/h 11.9 km/h 47 % 0.0 mm
11:43 15.2 °C 4.0 °C 1015.1 hPa ENE 4.7 km/h 11.9 km/h 47 % 0.0 mm
11:48 15.6 °C 5.0 °C 1015.1 hPa ENE 6.9 km/h 11.9 km/h 47 % 0.0 mm
11:53 15.9 °C 5.0 °C 1002.9 hPa NW 6.9 km/h 11.9 km/h 46 % 0.0 mm
11:58 16.0 °C 4.0 °C 1002.9 hPa NNE 6.9 km/h 10.1 km/h 45 % 0.0 mm
12:03 15.8 °C 4.0 °C 1002.9 hPa North 7.9 km/h 14.0 km/h 45 % 0.0 mm
12:08 15.8 °C 4.0 °C 1002.9 hPa Calm   14.0 km/h 45 % 0.0 mm
12:13 16.0 °C 4.0 °C 1002.9 hPa North 11.1 km/h 13.0 km/h 45 % 0.0 mm
12:18 16.3 °C 4.0 °C 1002.9 hPa NNE 14.0 km/h 14.0 km/h 44 % 0.0 mm
12:24 15.9 °C 3.0 °C 1001.9 hPa ENE 14.3 km/h 14.3 km/h 43 % 0.0 mm
12:29 15.9 °C 3.0 °C 1001.9 hPa NNW 6.9 km/h 16.3 km/h 43 % 0.0 mm
12:34 16.3 °C 4.0 °C 1001.9 hPa NNE 12.2 km/h 15.4 km/h 43 % 0.0 mm
12:39 16.3 °C 4.0 °C 1001.9 hPa ENE 4.7 km/h 13.7 km/h 43 % 0.0 mm
12:44 16.1 °C 3.0 °C 1001.9 hPa NNE 6.9 km/h 13.7 km/h 42 % 0.0 mm
12:49 16.3 °C 4.0 °C 1001.9 hPa ENE 3.2 km/h 14.0 km/h 43 % 0.0 mm
12:54 16.6 °C 4.0 °C 1000.9 hPa NE 10.1 km/h 14.0 km/h 43 % 0.0 mm
12:59 16.8 °C 4.0 °C 1000.9 hPa East 8.7 km/h 12.6 km/h 43 % 0.0 mm
13:04 16.8 °C 4.0 °C 1000.9 hPa East 8.7 km/h 12.6 km/h 42 % 0.0 mm
13:09 16.7 °C 3.0 °C 1001.9 hPa ENE 3.2 km/h 12.6 km/h 41 % 0.0 mm
13:14 17.1 °C 4.0 °C 1001.9 hPa NE 6.1 km/h 12.2 km/h 41 % 0.0 mm
13:19 17.2 °C 4.0 °C 1001.9 hPa NNE 9.0 km/h 13.0 km/h 41 % 0.0 mm
13:24 17.5 °C 4.0 °C 1003.9 hPa North 5.8 km/h 13.0 km/h 40 % 0.0 mm
13:29 17.2 °C 4.0 °C 1003.9 hPa NE 9.0 km/h 14.0 km/h 41 % 0.0 mm
13:34 17.0 °C 3.0 °C 1003.9 hPa NE 8.7 km/h 15.8 km/h 40 % 0.0 mm
13:39 17.1 °C 3.0 °C 1013.1 hPa North 7.6 km/h 16.3 km/h 39 % 0.0 mm
13:44 17.7 °C 4.0 °C 1013.1 hPa West 6.4 km/h 16.3 km/h 41 % 0.0 mm
13:49 18.0 °C 4.0 °C 1013.1 hPa West 9.0 km/h 12.2 km/h 40 % 0.0 mm
13:54 17.4 °C 3.0 °C 1013.1 hPa NE 14.0 km/h 16.6 km/h 39 % 0.0 mm
14:00 17.5 °C 4.0 °C 1013.1 hPa ESE 1.8 km/h 16.6 km/h 39 % 0.0 mm
14:05 17.4 °C 3.0 °C 1013.1 hPa North 6.1 km/h 16.3 km/h 38 % 0.0 mm
14:10 18.1 °C 4.0 °C 1007.0 hPa ENE 1.4 km/h 16.3 km/h 39 % 0.0 mm
14:15 17.9 °C 4.0 °C 1007.0 hPa NNW 5.8 km/h 14.8 km/h 39 % 0.0 mm
14:20 18.2 °C 4.0 °C 1007.0 hPa North 4.7 km/h 14.8 km/h 38 % 0.0 mm
14:25 18.5 °C 5.0 °C 1010.0 hPa NNE 8.7 km/h 8.7 km/h 39 % 0.0 mm
14:30 18.0 °C 3.0 °C 1010.0 hPa North 8.7 km/h 15.8 km/h 37 % 0.0 mm
14:35 17.9 °C 3.0 °C 1010.0 hPa SE 9.0 km/h 15.8 km/h 38 % 0.0 mm
14:40 18.0 °C 3.0 °C 1011.1 hPa NNE 7.9 km/h 12.2 km/h 38 % 0.0 mm
14:41 18.0 °C 3.0 °C 1011.1 hPa NNE 11.9 km/h 12.2 km/h 38 % 0.0 mm
14:46 18.2 °C 4.0 °C 1011.1 hPa NE 6.4 km/h 12.2 km/h 38 % 0.0 mm
14:51 18.2 °C 4.0 °C 1011.1 hPa ENE 4.7 km/h 12.6 km/h 38 % 0.0 mm
14:56 18.2 °C 4.0 °C 1011.1 hPa NE 4.7 km/h 12.6 km/h 38 % 0.0 mm
15:01 18.6 °C 4.0 °C 1011.1 hPa NE 15.1 km/h 15.1 km/h 38 % 0.0 mm
15:06 18.3 °C 4.0 °C 1001.9 hPa NNE 6.4 km/h 15.1 km/h 38 % 0.0 mm
15:11 18.3 °C 4.0 °C 1001.9 hPa ENE 7.9 km/h 13.7 km/h 38 % 0.0 mm
15:16 18.4 °C 3.0 °C 1001.9 hPa NE 9.7 km/h 11.9 km/h 37 % 0.0 mm
15:21 18.3 °C 4.0 °C 1009.0 hPa NE 12.2 km/h 12.2 km/h 38 % 0.0 mm
15:26 18.3 °C 4.0 °C 1009.0 hPa East 13.7 km/h 13.7 km/h 38 % 0.0 mm
15:31 18.5 °C 4.0 °C 1009.0 hPa NNE 4.3 km/h 13.7 km/h 38 % 0.0 mm
15:36 18.5 °C 4.0 °C 1009.0 hPa North 10.5 km/h 14.0 km/h 37 % 0.0 mm
15:41 18.6 °C 4.0 °C 1009.0 hPa NNE 10.1 km/h 14.0 km/h 37 % 0.0 mm
15:46 18.6 °C 4.0 °C 1009.0 hPa NE 8.7 km/h 12.6 km/h 37 % 0.0 mm
15:51 18.6 °C 4.0 °C 1003.9 hPa NE 7.9 km/h 14.3 km/h 38 % 0.0 mm
15:56 18.8 °C 4.0 °C 1003.9 hPa ENE 5.5 km/h 14.3 km/h 37 % 0.0 mm
16:00 19.0 °C 4.0 °C 1003.9 hPa North 5.5 km/h 11.1 km/h 37 % 0.0 mm
16:05 19.0 °C 4.0 °C 1003.9 hPa ENE 10.5 km/h 12.2 km/h 37 % 0.0 mm
16:10 18.8 °C 4.0 °C 1003.9 hPa NE 6.1 km/h 14.0 km/h 37 % 0.0 mm
16:15 18.7 °C 3.0 °C 1003.9 hPa NNW 9.7 km/h 15.8 km/h 36 % 0.0 mm
16:20 18.5 °C 3.0 °C 1003.9 hPa North 6.4 km/h 15.8 km/h 36 % 0.0 mm
16:25 18.7 °C 4.0 °C 1006.0 hPa NNE 12.2 km/h 13.7 km/h 37 % 0.0 mm
16:30 18.6 °C 4.0 °C 1006.0 hPa NE 12.6 km/h 15.8 km/h 37 % 0.0 mm
16:35 18.8 °C 4.0 °C 1006.0 hPa East 4.0 km/h 15.8 km/h 38 % 0.0 mm
16:40 18.2 °C 4.0 °C 1006.0 hPa ENE 12.6 km/h 16.9 km/h 38 % 0.0 mm
16:45 18.4 °C 4.0 °C 1006.0 hPa NE 5.8 km/h 16.9 km/h 38 % 0.0 mm
16:50 18.4 °C 4.0 °C 1006.0 hPa NNE 6.9 km/h 16.3 km/h 38 % 0.0 mm
16:55 18.0 °C 3.0 °C 1005.0 hPa North 8.7 km/h 18.0 km/h 38 % 0.0 mm
16:57 18.0 °C 3.0 °C 1005.0 hPa NNW 10.5 km/h 18.0 km/h 38 % 0.0 mm
17:02 17.4 °C 3.0 °C 1005.0 hPa NE 16.9 km/h 16.9 km/h 39 % 0.0 mm
17:07 17.7 °C 4.0 °C 1003.9 hPa NNW 14.0 km/h 16.9 km/h 39 % 0.0 mm
17:12 17.3 °C 3.0 °C 1003.9 hPa NNE 9.3 km/h 17.2 km/h 39 % 0.0 mm
17:17 17.2 °C 4.0 °C 1003.9 hPa NNE 14.0 km/h 17.2 km/h 40 % 0.0 mm
17:22 17.8 °C 4.0 °C 1003.9 hPa NNW 12.2 km/h 17.2 km/h 40 % 0.0 mm
17:27 17.7 °C 4.0 °C 1003.9 hPa ENE 15.8 km/h 20.6 km/h 39 % 0.0 mm
17:32 18.0 °C 4.0 °C 1003.9 hPa North 4.7 km/h 20.6 km/h 39 % 0.0 mm
17:37 17.9 °C 4.0 °C 997.9 hPa North 9.0 km/h 16.6 km/h 40 % 0.0 mm
17:42 17.7 °C 4.0 °C 997.9 hPa NE 17.7 km/h 20.9 km/h 41 % 0.0 mm
17:47 16.7 °C 3.0 °C 997.9 hPa North 13.7 km/h 20.9 km/h 41 % 0.0 mm
17:52 15.9 °C 3.0 °C 1000.9 hPa NE 12.6 km/h 19.8 km/h 41 % 0.0 mm
17:57 16.0 °C 3.0 °C 1000.9 hPa NE 9.7 km/h 16.3 km/h 41 % 0.0 mm
18:02 16.5 °C 3.0 °C 1000.9 hPa NNE 12.2 km/h 16.3 km/h 41 % 0.0 mm
18:07 16.6 °C 4.0 °C 1000.9 hPa ENE 13.0 km/h 19.8 km/h 42 % 0.0 mm
18:12 16.6 °C 4.0 °C 1000.9 hPa NE 17.7 km/h 20.6 km/h 42 % 0.0 mm
18:17 16.9 °C 4.0 °C 1000.9 hPa North 9.3 km/h 20.6 km/h 42 % 0.0 mm
18:22 16.8 °C 4.0 °C 1001.9 hPa ENE 9.7 km/h 17.2 km/h 42 % 0.0 mm
18:27 16.6 °C 3.0 °C 1001.9 hPa NE 13.7 km/h 19.1 km/h 41 % 0.0 mm
18:32 16.4 °C 3.0 °C 1001.9 hPa ENE 12.2 km/h 19.1 km/h 42 % 0.0 mm
18:37 15.2 °C 3.0 °C 998.9 hPa NE 15.8 km/h 20.6 km/h 43 % 0.0 mm
18:42 14.6 °C 3.0 °C 998.9 hPa NNW 16.6 km/h 20.6 km/h 44 % 0.0 mm
18:48 15.3 °C 3.0 °C 998.9 hPa ENE 15.8 km/h 18.0 km/h 44 % 0.0 mm
18:53 14.8 °C 3.0 °C 1000.9 hPa NE 12.6 km/h 17.7 km/h 45 % 0.0 mm
18:58 15.4 °C 3.0 °C 1000.9 hPa NNE 12.6 km/h 17.7 km/h 44 % 0.0 mm
19:03 15.3 °C 3.0 °C 1000.9 hPa NE 11.9 km/h 20.1 km/h 44 % 0.0 mm
19:08 15.4 °C 3.0 °C 998.9 hPa NE 13.7 km/h 20.1 km/h 44 % 0.0 mm
19:13 15.2 °C 3.0 °C 998.9 hPa NE 16.6 km/h 20.9 km/h 44 % 0.0 mm
19:18 15.1 °C 3.0 °C 998.9 hPa NNE 14.0 km/h 20.9 km/h 44 % 0.0 mm
19:23 15.1 °C 3.0 °C 994.1 hPa NE 16.9 km/h 19.5 km/h 44 % 0.0 mm
19:28 14.9 °C 3.0 °C 994.1 hPa NE 13.7 km/h 18.0 km/h 45 % 0.0 mm
19:33 14.9 °C 3.0 °C 994.1 hPa NNE 16.3 km/h 18.0 km/h 44 % 0.0 mm
19:38 14.5 °C 3.0 °C 998.9 hPa NE 15.8 km/h 20.6 km/h 44 % 0.0 mm
19:39 14.5 °C 3.0 °C 998.9 hPa NNE 19.5 km/h 20.6 km/h 44 % 0.0 mm
19:44 14.5 °C 3.0 °C 998.9 hPa NE 13.7 km/h 20.6 km/h 44 % 0.0 mm
19:49 14.4 °C 3.0 °C 998.9 hPa NNE 15.1 km/h 20.6 km/h 44 % 0.0 mm
19:54 14.0 °C 2.0 °C 997.9 hPa NE 21.9 km/h 21.9 km/h 44 % 0.0 mm
19:59 13.9 °C 3.0 °C 997.9 hPa NNE 19.5 km/h 21.9 km/h 45 % 0.0 mm
20:04 13.6 °C 2.0 °C 997.9 hPa NNW 20.9 km/h 21.9 km/h 45 % 0.0 mm
20:09 13.3 °C 2.0 °C 996.8 hPa NNE 17.2 km/h 20.9 km/h 45 % 0.0 mm
20:14 12.9 °C 2.0 °C 996.8 hPa ENE 16.3 km/h 20.6 km/h 46 % 0.0 mm
20:19 12.7 °C 2.0 °C 996.8 hPa NNE 16.6 km/h 19.8 km/h 46 % 0.0 mm
20:24 12.5 °C 2.0 °C 996.2 hPa NE 11.6 km/h 19.8 km/h 46 % 0.0 mm
20:29 12.4 °C 1.0 °C 996.2 hPa NE 14.0 km/h 19.8 km/h 46 % 0.0 mm
20:34 12.2 °C 1.0 °C 996.2 hPa NE 12.2 km/h 17.7 km/h 46 % 0.0 mm
20:39 12.0 °C 1.0 °C 994.1 hPa NE 12.6 km/h 16.9 km/h 47 % 0.0 mm
20:44 11.7 °C 1.0 °C 994.1 hPa NE 14.0 km/h 17.7 km/h 47 % 0.0 mm
20:49 11.6 °C 1.0 °C 994.1 hPa NNE 14.0 km/h 17.7 km/h 47 % 0.0 mm
20:54 11.4 °C 1.0 °C 996.8 hPa NNE 12.6 km/h 18.3 km/h 47 % 0.0 mm
20:59 11.2 °C 1.0 °C 996.8 hPa North 13.7 km/h 18.3 km/h 48 % 0.0 mm
21:04 11.0 °C 1.0 °C 996.8 hPa NNE 12.6 km/h 15.8 km/h 48 % 0.0 mm
21:10 10.9 °C 1.0 °C 988.0 hPa NNE 12.2 km/h 16.6 km/h 48 % 0.0 mm
21:15 10.7 °C 1.0 °C 988.0 hPa NNE 13.0 km/h 16.6 km/h 49 % 0.0 mm
21:20 10.5 °C 1.0 °C 988.0 hPa NE 11.9 km/h 15.8 km/h 49 % 0.0 mm
21:25 10.3 °C 0.0 °C 994.1 hPa NE 10.1 km/h 15.8 km/h 49 % 0.0 mm
21:30 10.1 °C 0.0 °C 994.1 hPa NE 10.8 km/h 14.0 km/h 50 % 0.0 mm
21:35 10.0 °C 0.0 °C 994.1 hPa NE 8.7 km/h 16.3 km/h 50 % 0.0 mm
21:40 9.8 °C 0.0 °C 995.1 hPa NE 11.9 km/h 16.3 km/h 51 % 0.0 mm
21:45 9.7 °C 1.0 °C 995.1 hPa NNE 12.2 km/h 14.0 km/h 52 % 0.0 mm
21:50 9.5 °C 1.0 °C 995.1 hPa NE 8.7 km/h 14.0 km/h 52 % 0.0 mm
21:55 9.3 °C 0.0 °C 995.1 hPa NNE 6.9 km/h 12.2 km/h 52 % 0.0 mm
22:00 8.9 °C 1.0 °C 995.1 hPa NE 5.5 km/h 10.1 km/h 54 % 0.0 mm
22:05 8.7 °C 0.0 °C 995.1 hPa ENE 7.9 km/h 8.7 km/h 54 % 0.0 mm
22:10 8.5 °C 0.0 °C 993.1 hPa NNE 6.4 km/h 9.3 km/h 55 % 0.0 mm
22:15 8.4 °C 0.0 °C 993.1 hPa North 6.1 km/h 9.3 km/h 56 % 0.0 mm
22:20 8.3 °C 1.0 °C 993.1 hPa NE 7.9 km/h 10.5 km/h 57 % 0.0 mm
22:25 8.2 °C 1.0 °C 993.1 hPa NE 10.5 km/h 10.5 km/h 59 % 0.0 mm
22:30 8.1 °C 1.0 °C 993.1 hPa Calm   10.5 km/h 60 % 0.0 mm
22:32 8.1 °C 1.0 °C 993.1 hPa NE 5.8 km/h 10.5 km/h 60 % 0.0 mm
22:37 7.8 °C 1.0 °C 987.0 hPa Calm   9.7 km/h 60 % 0.0 mm
22:42 7.6 °C 1.0 °C 987.0 hPa Calm   6.9 km/h 60 % 0.0 mm
22:47 7.4 °C 1.0 °C 987.0 hPa NNE 7.9 km/h 8.7 km/h 62 % 0.0 mm
22:52 7.3 °C 1.0 °C 986.0 hPa NE 6.9 km/h 9.7 km/h 63 % 0.0 mm
22:57 7.2 °C 1.0 °C 986.0 hPa NNE 6.9 km/h 9.7 km/h 65 % 0.0 mm
23:02 7.1 °C 1.0 °C 986.0 hPa North 4.3 km/h 9.7 km/h 64 % 0.0 mm
23:07 7.0 °C 1.0 °C 989.1 hPa NE 7.9 km/h 9.7 km/h 66 % 0.0 mm
23:12 6.9 °C 2.0 °C 989.1 hPa East 5.8 km/h 9.3 km/h 69 % 0.0 mm
23:18 6.9 °C 2.0 °C 989.1 hPa NNE 9.0 km/h 10.8 km/h 70 % 0.0 mm
23:23 6.9 °C 2.0 °C 989.1 hPa NNE 6.9 km/h 10.8 km/h 71 % 0.0 mm
23:24 6.9 °C 2.0 °C 989.1 hPa NE 6.4 km/h 10.8 km/h 71 % 0.0 mm
23:29 6.8 °C 2.0 °C 989.1 hPa NE 8.7 km/h 9.7 km/h 72 % 0.0 mm
23:34 6.7 °C 3.0 °C 989.1 hPa North 5.5 km/h 9.7 km/h 74 % 0.0 mm
23:39 6.6 °C 2.0 °C 989.1 hPa NNE 6.9 km/h 9.3 km/h 73 % 0.0 mm
23:44 6.4 °C 2.0 °C 989.1 hPa NNE 4.7 km/h 8.7 km/h 73 % 0.0 mm
23:45 6.5 °C 2.0 °C 989.1 hPa NNE 4.7 km/h 8.7 km/h 73 % 0.0 mm
23:50 6.4 °C 2.0 °C 989.1 hPa NNE 6.1 km/h 7.9 km/h 73 % 0.0 mm
23:55 6.2 °C 3.0 °C 985.0 hPa NE 4.7 km/h 8.7 km/h 75 % 0.0 mm
Le Gheer Warneton
Courtoisie de Weather Underground - 2.25 mb

Mise a jour : 18/12/2017 17:33:13
Généré par Cumulus 1.9.4 (1099)